Find Local Weather

World > North America > United States > Illinois

Bourbonnais, Illinois Regional Weather

Lat: 41.16N, Lon: 87.88W
Wx Zone: ILZ023
Warning FLW WEATHER ALERT - DENSE FOG ADVISORY (More Info. Click Here) Warning
Feedback
Expires:201812101800;;589846
ASUS43 KLOT 101708
RWRIL 

ILLINOIS REGIONAL WEATHER ROUNDUP
NATIONAL WEATHER SERVICE CHICAGO/ROMEOVILLE IL
1100 AM CST MON DEC 10 2018

NOTE: "FAIR" INDICATES FEW OR NO CLOUDS BELOW 12,000 FEET WITH NO
SIGNIFICANT WEATHER AND/OR OBSTRUCTIONS TO VISIBILITY.

* THESE STATIONS ARE NOT UNDER NWS QUALITY CONTROL. THEY ALSO MAY NOT
  REPORT WEATHER SUCH AS PRECIPITATION OR FOG.


ILZ005-006-012>014-019>023-101800-
NORTHEAST ILLINOIS
  
CITY           SKY/WX    TMP DP  RH WIND       PRES   REMARKS
CHICAGO-OHARE  FAIR      30  22  72 W9        30.26F WCI  22          
CHICAGO-MIDWAY FAIR      29  20  69 SW6       30.28F WCI  23          
AURORA         FAIR      28  23  81 SW7       30.28F HAZE    WCI  21  
LANSING*       FAIR      26  25  97 SW5       30.29F WCI  20          
JOLIET*        CLOUDY    22  22  98 CALM      30.30F FOG              
WAUKEGAN       FAIR      31  24  75 VRB7      30.23F HAZE    WCI  24  
DUPAGE AIRPORT FAIR      27  23  85 W9        30.27F FOG     WCI  18  
KANKAKEE*      FOG       20  18  92 CALM      30.32F VSB<1/4          
WHEELING       FAIR      32  21  64 W10       30.27F WCI  24          
MORRIS*        FOG       22  20  95 CALM      30.30F VSB 1/4          
ROMEOVILLE*    FAIR      24  23  96 SW6       30.29F FOG     WCI  17  
NORTHERLY ISL    N/A     30  20  66 W7          N/A  WCI  23          
$$


SKY/WX - Weather  TMP - Temperature  DP - Dew Point  RH - Relative Humidity
WIND - Wind Direction/Speed PRES - Barometric Pressure